User: anonymous   Login
Location: Darlington Observatory
(36.4817°N, 105.8156°W)
Time: 09:37:31
(UTC-07:00)
Language:

MOS 1 - Orbit

View from above orbital plane
View from above orbital plane
View from above satellite
View from above satellite

Ground track
Ground track

The orbit data is extracted from the following two-line orbital elements,

1 17527U 87018A   15032.05522491  .00000410  00000-0  29727-3 0  7358
2 17527 099.2391 021.0751 0009122 155.4232 246.1484 14.02346839427911
Epoch (UTC): 01 February 2015 01:19:31
Eccentricity: 0.0009122
inclination: 99.2391°
perigee height: 879 km
apogee height: 892 km
right ascension of ascending node: 21.0751°
argument of perigee: 155.4232°
revolutions per day: 14.02346839
mean anomaly at epoch: 246.1484°
orbit number at epoch: 42791

The dashed part of the orbit path shows where the satellite is in the earth's shadow,  

DLR